KPDK

DeKalb-Peachtree

Airport
ICAO code
KPDK
Summary
ICAO Region
NAM
ICAO Territory
Location

Chamblee, Georgia,

Coordinates
33° 52' 32" N , 84° 18' 7" W
KCC
Airport LOS
Parallel Runway Operation
Metar
Observation
KPDK 260253Z 25005KT 10SM CLR 20/17 A2992 RMK AO2 SLP122 T02000172 51012
Station
Atlanta, De Kalb-Peachtree Airport
Date/Time
2022-09-26 02:53:00
Wind direction
250°
Wind speed
05 kts
Lowest cloud amount
n/a
Temperature
20°C
Dew point
17.2°C
Humidity
83%
Weather condition
n/a

Description

DeKalb-Peachtree Airport is a municipal general aviation airport located in Chamblee, Georgia, just northeast of Atlanta.

Climatology

Humid “subtropical” climate (Köppen climate classification Cfa) - characterized by hot, humid summers and cool winters. Significant amounts of precipitation occur in all seasons in most areas. Winter rainfall (and sometimes snowfall) is associated with large storms that the westerlies steer from west to east. Most summer rainfall occurs during thunderstorms and occasional tropical storms (hurricanes).

Runways

Designator Length Width Surface Rops
9/27 1031 46 ASP Yes/Yes
02L/20R 1142 46 ASP Yes/Yes
16/34 1209 46 ASP Yes/Yes
02R/20L 1829 30 CON Yes/Yes

Airport map

Aerial View

SKYbrary Partners:

Safety knowledge contributed by: